• In Netherlands
  • List of Countries
  • For 7 days
  • Water Temperature
  • Satellite Maps
  • Weather Map
  • Weather Widgets
  • user-avatar
    Login

    Hourly Weather Mayrhofen

    Today, 25 June, Sunday

    Time Temperature Precipitation Wind Pressure Humidity
    00:00 +9°C° 0.6 mm 0 mps 618 mmHg 96%
    01:00 +9°C° 0 mm 0 mps 618 mmHg 96%
    02:00 +9°C° 0.5 mm 0 mps 618 mmHg 96%
    03:00 +9°C° 0.5 mm 0 mps 618 mmHg 96%
    04:00 +9°C° 0.5 mm 0 mps 617 mmHg 96%
    05:00 +10°C° 0.8 mm 0 mps 618 mmHg 94%
    06:00 +12°C° 0.8 mm 0 mps 619 mmHg 92%
    07:00 +14°C° 0 mm 1 mps 619 mmHg 89%
    08:00 +14°C° 2 mm 1 mps 619 mmHg 90%
    09:00 +14°C° 2 mm 1 mps 619 mmHg 90%
    10:00 +13°C° 2 mm 1 mps 619 mmHg 91%
    11:00 +13°C° 2.4 mm 1 mps 619 mmHg 91%
    12:00 +13°C° 2.4 mm 1 mps 619 mmHg 91%
    13:00 +12°C° 2.4 mm 1 mps 619 mmHg 92%
    14:00 +13°C° 0.7 mm 1 mps 619 mmHg 88%
    15:00 +13°C° 0.7 mm 2 mps 619 mmHg 85%
    16:00 +14°C° 0.7 mm 2 mps 619 mmHg 82%
    17:00 +14°C° 0.2 mm 1 mps 619 mmHg 84%
    18:00 +13°C° 0.2 mm 1 mps 619 mmHg 85%
    19:00 +13°C° 0.2 mm 1 mps 619 mmHg 87%
    20:00 +12°C° 0 mm 1 mps 618 mmHg 90%
    21:00 +10°C° 0 mm 1 mps 618 mmHg 92%
    22:00 +8°C° 0 mm 1 mps 618 mmHg 95%
    23:00 +8°C° 0 mm 1 mps 618 mmHg 95%

    Tomorrow, 26 June, Monday

    Time Temperature Precipitation Wind Pressure Humidity
    00:00 +8°C° 0 mm 1 mps 618 mmHg 95%
    01:00 +8°C° 0 mm 1 mps 617 mmHg 95%
    02:00 +7°C° 0 mm 1 mps 617 mmHg 94%
    03:00 +6°C° 0 mm 1 mps 617 mmHg 93%
    04:00 +6°C° 0 mm 1 mps 616 mmHg 91%
    05:00 +8°C° 0 mm 1 mps 617 mmHg 85%
    06:00 +10°C° 0 mm 0 mps 618 mmHg 79%
    07:00 +12°C° 0 mm 0 mps 619 mmHg 73%
    08:00 +15°C° 0 mm 0 mps 620 mmHg 63%
    09:00 +17°C° 0 mm 0 mps 621 mmHg 54%
    10:00 +21°C° 0 mm 1 mps 622 mmHg 45%
    11:00 +22°C° 0 mm 1 mps 622 mmHg 43%
    12:00 +23°C° 0 mm 1 mps 622 mmHg 41%
    13:00 +24°C° 0 mm 1 mps 622 mmHg 40%
    14:00 +23°C° 0.1 mm 1 mps 621 mmHg 45%
    15:00 +22°C° 0.1 mm 1 mps 621 mmHg 50%
    16:00 +21°C° 0.1 mm 1 mps 620 mmHg 55%
    17:00 +20°C° 0.6 mm 1 mps 620 mmHg 65%
    18:00 +19°C° 0.6 mm 1 mps 619 mmHg 74%
    19:00 +16°C° 0.6 mm 1 mps 619 mmHg 84%
    20:00 +15°C° 0.7 mm 1 mps 618 mmHg 87%
    21:00 +13°C° 0.7 mm 1 mps 618 mmHg 90%
    22:00 +11°C° 0.7 mm 1 mps 617 mmHg 93%
    23:00 +11°C° 0.4 mm 1 mps 617 mmHg 94%

    Day after tomorrow, 27 June, Tuesday

    Time Temperature Precipitation Wind Pressure Humidity
    00:00 +11°C° 0.4 mm 1 mps 617 mmHg 95%
    01:00 +11°C° 0.4 mm 1 mps 617 mmHg 96%
    02:00 +10°C° 0.2 mm 2 mps 617 mmHg 96%
    03:00 +10°C° 0.2 mm 2 mps 617 mmHg 96%
    04:00 +10°C° 0.2 mm 2 mps 616 mmHg 96%
    05:00 +12°C° 0.4 mm 2 mps 617 mmHg 95%
    06:00 +12°C° 0.4 mm 2 mps 617 mmHg 93%
    07:00 +13°C° 0.4 mm 1 mps 617 mmHg 92%
    08:00 +14°C° 0.3 mm 1 mps 617 mmHg 85%
    09:00 +16°C° 0.3 mm 1 mps 618 mmHg 77%
    10:00 +18°C° 0.3 mm 1 mps 618 mmHg 69%
    11:00 +19°C° 0.2 mm 1 mps 618 mmHg 65%
    12:00 +20°C° 0.2 mm 1 mps 619 mmHg 61%
    13:00 +21°C° 0.2 mm 1 mps 619 mmHg 57%
    14:00 +21°C° 0.7 mm 1 mps 618 mmHg 63%
    15:00 +20°C° 0.7 mm 1 mps 618 mmHg 69%
    16:00 +19°C° 0.7 mm 1 mps 617 mmHg 74%
    17:00 +19°C° 0.7 mm 1 mps 617 mmHg 79%
    18:00 +18°C° 0.7 mm 1 mps 616 mmHg 83%
    19:00 +16°C° 0.7 mm 1 mps 616 mmHg 88%
    20:00 +14°C° 0.4 mm 1 mps 616 mmHg 90%
    21:00 +13°C° 0.4 mm 1 mps 615 mmHg 93%
    22:00 +10°C° 0.4 mm 2 mps 614 mmHg 95%
    23:00 +10°C° 0.1 mm 2 mps 614 mmHg 96%

    28 June, Wednesday

    Time Temperature Precipitation Wind Pressure Humidity
    00:00 +10°C° 0.1 mm 2 mps 614 mmHg 96%
    01:00 +10°C° 0.1 mm 2 mps 614 mmHg 96%
    02:00 +10°C° 0 mm 2 mps 613 mmHg 96%
    03:00 +10°C° 0 mm 2 mps 613 mmHg 96%
    04:00 +9°C° 0 mm 2 mps 613 mmHg 96%
    05:00 +10°C° 0 mm 2 mps 613 mmHg 93%
    06:00 +13°C° 0 mm 2 mps 613 mmHg 90%
    07:00 +14°C° 0 mm 2 mps 614 mmHg 87%
    08:00 +15°C° 0.1 mm 2 mps 614 mmHg 78%
    09:00 +17°C° 0.1 mm 2 mps 614 mmHg 70%
    10:00 +19°C° 0.1 mm 2 mps 615 mmHg 61%
    11:00 +19°C° 0.6 mm 2 mps 615 mmHg 62%
    12:00 +19°C° 0.6 mm 3 mps 614 mmHg 63%
    13:00 +19°C° 0.6 mm 3 mps 614 mmHg 63%
    14:00 +19°C° 1.3 mm 3 mps 614 mmHg 66%
    15:00 +18°C° 1.3 mm 3 mps 613 mmHg 69%
    16:00 +18°C° 1.3 mm 3 mps 613 mmHg 71%
    17:00 +17°C° 1.3 mm 3 mps 612 mmHg 77%
    18:00 +15°C° 1.3 mm 2 mps 611 mmHg 82%
    19:00 +14°C° 1.3 mm 2 mps 611 mmHg 88%
    20:00 +13°C° 1.2 mm 2 mps 610 mmHg 90%
    21:00 +12°C° 1.2 mm 2 mps 610 mmHg 93%
    22:00 +9°C° 1.2 mm 2 mps 609 mmHg 95%
    23:00 +9°C° 0.6 mm 2 mps 609 mmHg 95%

    29 June, Thursday

    Time Temperature Precipitation Wind Pressure Humidity
    00:00 +8°C° 0.6 mm 2 mps 608 mmHg 95%
    01:00 +8°C° 0.6 mm 2 mps 608 mmHg 95%
    02:00 +7°C° 0.5 mm 2 mps 608 mmHg 95%
    03:00 +8°C° 0.5 mm 1 mps 608 mmHg 96%
    04:00 +7°C° 0.5 mm 1 mps 608 mmHg 97%
    05:00 +8°C° 0.7 mm 1 mps 608 mmHg 95%
    06:00 +9°C° 0.7 mm 1 mps 609 mmHg 93%
    07:00 +10°C° 0.7 mm 1 mps 609 mmHg 92%
    08:00 +10°C° 0.9 mm 1 mps 610 mmHg 89%
    09:00 +11°C° 0.9 mm 1 mps 610 mmHg 87%
    10:00 +11°C° 0.9 mm 1 mps 611 mmHg 84%
    11:00 +11°C° 1.7 mm 1 mps 611 mmHg 87%
    12:00 +11°C° 1.7 mm 1 mps 611 mmHg 89%
    13:00 +10°C° 1.7 mm 1 mps 611 mmHg 92%
    14:00 +11°C° 1.6 mm 1 mps 611 mmHg 91%
    15:00 +11°C° 1.6 mm 1 mps 611 mmHg 91%
    16:00 +11°C° 1.6 mm 1 mps 611 mmHg 91%
    17:00 +10°C° 2.2 mm 1 mps 611 mmHg 92%
    18:00 +9°C° 2.2 mm 1 mps 612 mmHg 93%
    19:00 +9°C° 2.2 mm 1 mps 612 mmHg 94%
    20:00 +8°C° 0.5 mm 1 mps 612 mmHg 95%
    21:00 +7°C° 0.5 mm 1 mps 612 mmHg 96%
    22:00 +5°C° 0.5 mm 1 mps 612 mmHg 96%
    23:00 +5°C° 0.3 mm 1 mps 612 mmHg 96%

    30 June, Friday

    Time Temperature Precipitation Wind Pressure Humidity
    00:00 +4°C° 0.3 mm 1 mps 611 mmHg 95%
    01:00 +4°C° 0.3 mm 1 mps 611 mmHg 95%
    02:00 +4°C° 0.1 mm 1 mps 611 mmHg 94%
    03:00 +4°C° 0.1 mm 1 mps 611 mmHg 94%
    04:00 +4°C° 0.1 mm 1 mps 611 mmHg 94%
    05:00 +6°C° 0 mm 1 mps 612 mmHg 92%
    06:00 +7°C° 0 mm 1 mps 613 mmHg 90%
    07:00 +9°C° 0 mm 1 mps 614 mmHg 88%
    08:00 +10°C° 0.2 mm 1 mps 615 mmHg 82%
    09:00 +10°C° 0.2 mm 2 mps 615 mmHg 75%
    10:00 +12°C° 0.2 mm 2 mps 616 mmHg 69%
    11:00 +12°C° 0.5 mm 2 mps 616 mmHg 70%
    12:00 +12°C° 0.5 mm 2 mps 616 mmHg 71%
    13:00 +12°C° 0.5 mm 2 mps 616 mmHg 72%
    14:00 +12°C° 0.9 mm 2 mps 616 mmHg 73%
    15:00 +12°C° 0.9 mm 2 mps 615 mmHg 73%
    16:00 +12°C° 0.9 mm 2 mps 615 mmHg 74%
    17:00 +10°C° 0.9 mm 2 mps 615 mmHg 78%
    18:00 +10°C° 0.9 mm 2 mps 615 mmHg 81%
    19:00 +10°C° 0.9 mm 1 mps 615 mmHg 85%
    20:00 +8°C° 0.8 mm 1 mps 614 mmHg 88%
    21:00 +7°C° 0.8 mm 1 mps 614 mmHg 91%
    22:00 +5°C° 0.8 mm 1 mps 614 mmHg 94%
    23:00 +4°C° 0.4 mm 1 mps 613 mmHg 94%
    Show more